N108JN MMMM-MMSP

Flight info

Callsign N108JN
Flight time N/A
Altitude 24000
Route MLM5B MLM V39 BJX/N0407F170 V39 SLP
Aircraft LJ35/M-SFGJRW/S

Departure

Time 2026-04-12 01:46
Airport General Francisco J. Mujica International Airport (MMMM)

Arrival

Time N/A
Airport Ponciano Arriaga International Airport (MMSP)
Time Latitude Longitude Altitude Speed Heading
2026-04-12 01:37 19.84605 -101.02621 6055 ft 0 kts 54°
2026-04-12 01:41 19.84594 -101.02637 6054 ft 10 kts 53°
2026-04-12 01:42 19.84545 -101.02714 6052 ft 7 kts 60°
2026-04-12 01:42 19.84539 -101.02725 6052 ft 0 kts 60°
2026-04-12 01:43 19.84548 -101.02717 6052 ft 4 kts 30°
2026-04-12 01:43 19.84595 -101.02726 6053 ft 10 kts 332°
2026-04-12 01:43 19.84682 -101.02733 6054 ft 16 kts 27°
2026-04-12 01:43 19.84798 -101.02683 6058 ft 20 kts 22°
2026-04-12 01:44 19.84927 -101.02595 6062 ft 25 kts 40°
2026-04-12 01:44 19.85048 -101.02446 6066 ft 29 kts 54°
2026-04-12 01:44 19.85175 -101.02255 6067 ft 34 kts 56°
2026-04-12 01:44 19.85326 -101.02030 6062 ft 41 kts 54°
2026-04-12 01:45 19.85506 -101.01762 6053 ft 48 kts 55°
2026-04-12 01:45 19.85706 -101.01464 6043 ft 51 kts 54°
2026-04-12 01:45 19.85833 -101.01218 6034 ft 21 kts 40°
2026-04-12 01:45 19.85858 -101.01238 6034 ft 5 kts 236°
2026-04-12 01:46 19.85845 -101.01256 6035 ft 0 kts 233°
2026-04-12 01:46 19.85640 -101.01561 6047 ft 103 kts 234°
2026-04-12 01:46 19.85044 -101.02441 6204 ft 183 kts 235°
2026-04-12 01:46 19.84164 -101.03760 6765 ft 250 kts 233°
2026-04-12 01:47 19.83047 -101.05410 7310 ft 294 kts 232°
2026-04-12 01:47 19.81635 -101.07031 8747 ft 297 kts 219°
2026-04-12 01:47 19.80718 -101.08720 10729 ft 270 kts 253°
2026-04-12 01:47 19.79891 -101.10569 12111 ft 287 kts 238°
2026-04-12 01:48 19.78692 -101.12360 13230 ft 306 kts 233°
2026-04-12 01:48 19.77440 -101.14211 14608 ft 312 kts 239°
2026-04-12 01:48 19.76745 -101.16400 15899 ft 319 kts 262°
2026-04-12 01:48 19.76939 -101.18772 17178 ft 330 kts 285°
2026-04-12 01:49 19.78019 -101.20958 18439 ft 342 kts 307°
2026-04-12 01:49 19.79847 -101.22598 19548 ft 352 kts 329°
2026-04-12 01:49 19.82183 -101.23439 20696 ft 361 kts 351°
2026-04-12 01:49 19.84708 -101.23344 21850 ft 370 kts 11°
2026-04-12 01:50 19.87115 -101.22303 22962 ft 379 kts 32°
2026-04-12 01:50 19.89091 -101.20459 23823 ft 394 kts 50°
2026-04-12 01:50 19.90559 -101.17938 23913 ft 410 kts 68°
2026-04-12 01:50 19.91486 -101.15026 23954 ft 422 kts 75°
2026-04-12 01:51 19.93250 -101.08947 23991 ft 443 kts 60°
2026-04-12 01:51 19.95199 -101.06391 23980 ft 450 kts 43°
2026-04-12 01:51 19.97797 -101.04524 23952 ft 453 kts 25°
2026-04-12 01:52 20.00703 -101.03561 23910 ft 424 kts
2026-04-12 01:52 20.03525 -101.03065 23868 ft 401 kts 15°
2026-04-12 01:52 20.06018 -101.01852 23497 ft 393 kts 33°
2026-04-12 01:52 20.07986 -100.99962 22443 ft 358 kts 48°
2026-04-12 01:53 20.09291 -100.97793 20005 ft 342 kts 68°
2026-04-12 01:53 20.09780 -100.95390 17763 ft 326 kts 90°
2026-04-12 01:53 20.09429 -100.93080 15505 ft 310 kts 112°
2026-04-12 01:53 20.08330 -100.91186 13461 ft 295 kts 135°
2026-04-12 01:54 20.07291 -100.90296 12073 ft 285 kts 151°
2026-04-12 01:54 20.05464 -100.89744 10526 ft 264 kts 185°
2026-04-12 01:54 20.03869 -100.90295 9928 ft 223 kts 211°
2026-04-12 01:54 20.02887 -100.91449 9228 ft 206 kts 250°
2026-04-12 01:55 20.02616 -100.92980 8936 ft 203 kts 259°
2026-04-12 01:55 20.02346 -100.94428 8620 ft 203 kts 261°
2026-04-12 01:55 20.02241 -100.95080 8649 ft 195 kts 259°
2026-04-12 01:55 20.02097 -100.95632 8706 ft 188 kts 250°
2026-04-12 01:56 20.01423 -100.96946 8541 ft 231 kts 227°
2026-04-12 01:56 20.00029 -100.97958 8912 ft 253 kts 207°
2026-04-12 01:56 19.98330 -100.98745 8299 ft 276 kts 200°
2026-04-12 01:56 19.96544 -100.99592 7980 ft 281 kts 205°
2026-04-12 01:57 19.94781 -101.00384 8205 ft 267 kts 200°
2026-04-12 01:57 19.92990 -101.00978 8036 ft 274 kts 189°
2026-04-12 01:57 19.91080 -101.01047 7710 ft 272 kts 180°
2026-04-12 01:57 19.89194 -101.01058 7296 ft 261 kts 171°
2026-04-12 01:58 19.87657 -101.00592 7004 ft 202 kts 161°
2026-04-12 01:58 19.86500 -101.00559 6566 ft 156 kts 212°
2026-04-12 01:58 19.85778 -101.01348 6066 ft 139 kts 237°
2026-04-12 01:58 19.85297 -101.02071 6064 ft 97 kts 235°
2026-04-12 01:59 19.85017 -101.02492 6065 ft 48 kts 234°
2026-04-12 01:59 19.84751 -101.02707 6056 ft 46 kts 201°
2026-04-12 01:59 19.84573 -101.02705 6053 ft 14 kts 118°
2026-04-12 01:59 19.84591 -101.02641 6054 ft 1 kts 54°
2026-04-12 02:00 19.84592 -101.02639 6054 ft 0 kts 54°
2026-04-12 02:00 19.84602 -101.02625 6054 ft 4 kts 54°
2026-04-12 02:00 19.84605 -101.02621 6054 ft 0 kts 54°